�������r�C�����j�^�v���󋵏��
Date,Time,5�C6���@���p�r�C��,����,����(m/s)
2022/02/02,00:00,4.2,�k,2.5
2022/02/02,00:10,4.1,�k�k��,2.8
2022/02/02,00:20,4.0,�k,3.2
2022/02/02,00:30,4.0,�k�k��,4.8
2022/02/02,00:40,4.0,�k�k��,5.4
2022/02/02,00:50,4.2,�k�k��,5.2
2022/02/02,01:00,4.1,�k�k��,5.8
2022/02/02,01:10,4.3,�k,6.2
2022/02/02,01:20,4.2,�k,6.1
2022/02/02,01:30,4.3,�k,7.1
2022/02/02,01:40,4.0,�k�k��,7.3
2022/02/02,01:50,4.2,�k�k��,7.1
2022/02/02,02:00,4.2,�k�k��,6.7
2022/02/02,02:10,4.1,�k�k��,6.2
2022/02/02,02:20,4.1,�k��,7.6
2022/02/02,02:30,4.1,���k��,7.0
2022/02/02,02:40,4.1,�k��,5.7
2022/02/02,02:50,4.3,�k�k��,4.7
2022/02/02,03:00,4.2,�k��,5.4
2022/02/02,03:10,4.1,�k�k��,5.3
2022/02/02,03:20,4.0,�k�k��,3.8
2022/02/02,03:30,4.1,�k�k��,3.9
2022/02/02,03:40,4.2,�k�k��,4.4
2022/02/02,03:50,4.1,�k��,5.9
2022/02/02,04:00,4.2,�k��,9.3
2022/02/02,04:10,3.9,�k��,10.9
2022/02/02,04:20,4.0,���k��,10.2
2022/02/02,04:30,4.1,���k��,10.8
2022/02/02,04:40,4.2,���k��,9.9
2022/02/02,04:50,4.0,���k��,8.9
2022/02/02,05:00,4.1,���k��,7.9
2022/02/02,05:10,4.3,���k��,9.2
2022/02/02,05:20,4.2,���k��,9.0
2022/02/02,05:30,3.9,���k��,8.3
2022/02/02,05:40,4.1,���k��,10.2
2022/02/02,05:50,4.0,���k��,5.4
2022/02/02,06:00,4.1,�k��,6.6
2022/02/02,06:10,4.1,�k��,5.2
2022/02/02,06:20,4.2,�k��,4.5
2022/02/02,06:30,3.9,�k��,4.7
2022/02/02,06:40,4.1,���k��,6.4
2022/02/02,06:50,4.1,���k��,6.2
2022/02/02,07:00,4.3,��,5.3
2022/02/02,07:10,4.1,���k��,6.6
2022/02/02,07:20,4.1,��,6.4
2022/02/02,07:30,4.1,���k��,6.9
2022/02/02,07:40,4.0,���k��,5.7
2022/02/02,07:50,4.0,��,4.0
2022/02/02,08:00,4.0,�k��,2.6
2022/02/02,08:10,4.3,�k�k��,3.8
2022/02/02,08:20,4.2,�k�k��,3.7
2022/02/02,08:30,4.2,�k�k��,1.7
2022/02/02,08:40,4.0,�k��,2.6
2022/02/02,08:50,4.1,�k�k��,2.6
2022/02/02,09:00,4.2,�k�k��,4.1
2022/02/02,09:10,4.2,�k,2.5
2022/02/02,09:20,4.1,�k�k��,2.3
2022/02/02,09:30,4.2,-,CALM
2022/02/02,09:40,4.0,��,0.8
2022/02/02,09:50,4.1,�k�k��,2.0
2022/02/02,10:00,4.1,�k,3.2
2022/02/02,10:10,4.1,�k�k��,1.1
2022/02/02,10:20,4.1,�쐼,2.0
2022/02/02,10:30,4.1,���k��,6.9
2022/02/02,10:40,4.0,���k��,8.0
2022/02/02,10:50,3.9,���k��,9.2
2022/02/02,11:00,4.1,���k��,8.6
2022/02/02,11:10,4.0,���k��,10.9
2022/02/02,11:20,4.2,���k��,10.2
2022/02/02,11:30,4.2,��,10.2
2022/02/02,11:40,4.1,��,10.3
2022/02/02,11:50,4.0,��,7.2
2022/02/02,12:00,4.2,�k��,12.7
2022/02/02,12:10,4.0,�k��,9.6
2022/02/02,12:20,4.2,���k��,9.2
2022/02/02,12:30,4.0,���k��,11.3
2022/02/02,12:40,4.2,���k��,11.1
2022/02/02,12:50,4.1,���k��,10.5
2022/02/02,13:00,4.3,���k��,11.6
2022/02/02,13:10,4.1,���k��,10.2
2022/02/02,13:20,3.9,�k��,11.3
2022/02/02,13:30,4.0,���k��,10.2
2022/02/02,13:40,4.1,���k��,13.0
2022/02/02,13:50,4.1,���k��,11.1
2022/02/02,14:00,4.2,���k��,10.3
2022/02/02,14:10,4.0,���k��,10.2
2022/02/02,14:20,4.0,���k��,8.4
2022/02/02,14:30,4.0,���k��,8.6
2022/02/02,14:40,3.9,���k��,5.7
2022/02/02,14:50,4.2,���k��,4.3
2022/02/02,15:00,4.0,���k��,5.8
2022/02/02,15:10,4.2,�k��,7.8
2022/02/02,15:20,4.0,�k��,8.8
2022/02/02,15:30,4.1,�k��,8.0
2022/02/02,15:40,4.1,�k�k��,7.5
2022/02/02,15:50,4.1,�k�k��,7.7
2022/02/02,16:00,4.2,�k�k��,6.2
2022/02/02,16:10,4.0,�k�k��,8.3
2022/02/02,16:20,4.1,�k�k��,6.3
2022/02/02,16:30,4.0,�k�k��,4.7
2022/02/02,16:40,4.1,�k�k��,4.8
2022/02/02,16:50,4.0,�k��,5.1
2022/02/02,17:00,4.2,�k��,5.9
2022/02/02,17:10,4.2,�k��,6.3
2022/02/02,17:20,4.1,���k��,4.1
2022/02/02,17:30,4.1,���k��,3.8
2022/02/02,17:40,4.1,���k��,2.9
2022/02/02,17:50,4.2,���k��,2.0
2022/02/02,18:00,4.1,���k��,1.5
2022/02/02,18:10,4.1,���쐼,0.9
2022/02/02,18:20,4.0,���쐼,0.6
2022/02/02,18:30,4.0,�k��,0.9
2022/02/02,18:40,4.1,��,1.1
2022/02/02,18:50,4.2,���k��,1.7
2022/02/02,19:00,4.2,���쐼,1.7
2022/02/02,19:10,4.2,���쐼,2.6
2022/02/02,19:20,4.2,���쐼,4.7
2022/02/02,19:30,4.1,���쐼,5.3
2022/02/02,19:40,4.3,��,5.5
2022/02/02,19:50,4.1,��,3.6
2022/02/02,20:00,4.2,�쐼,2.8
2022/02/02,20:10,4.1,���쐼,3.2
2022/02/02,20:20,4.0,���쐼,2.8
2022/02/02,20:30,4.1,��,3.5
2022/02/02,20:40,4.1,��,4.7
2022/02/02,20:50,4.1,��,4.9
2022/02/02,21:00,4.1,��,5.1
2022/02/02,21:10,4.0,��,6.0
2022/02/02,21:20,4.2,��,6.6
2022/02/02,21:30,4.1,��,6.6
2022/02/02,21:40,4.2,��,5.3
2022/02/02,21:50,4.0,���k��,5.2
2022/02/02,22:00,4.2,���k��,6.0
2022/02/02,22:10,4.2,��,5.7
2022/02/02,22:20,4.1,��,6.8
2022/02/02,22:30,4.0,��,6.7
2022/02/02,22:40,4.0,��,6.0
2022/02/02,22:50,4.0,��,6.2
2022/02/02,23:00,4.0,��,7.0
2022/02/02,23:10,4.0,��,5.7
2022/02/02,23:20,3.9,��,5.5
2022/02/02,23:30,4.2,��,5.3
2022/02/02,23:40,4.0,��,6.6
2022/02/02,23:50,4.1,��,7.4
